Hourly Data Report for April 07, 2021

KUGAARUK CLIMATE
NUNAVUT
Current Station Operator: ECCC - MSC

68°32'15.060" N
89°47'47.020" W
15.80 m
2303094
71407
NBB

Download Data

Hourly Data (April 2021)
Hourly Data Report for April 7, 2021
TIME
LST
Temp Definition
°C
Dew Point Definition
°C
Rel Hum Definition
%
Precip. Amount Definition
mm

Wind Dir Definition
10's deg

Wind Spd Definition
km/h
Visibility Definition
km
Stn Press Definition
kPa
Hmdx Definition


Wind Chill Definition


Weather Definition


00:00 -19.0 -21.2 83 0.0 6 2   102.13   -21 LegendNANA
01:00 -19.9 -22.2 82 0.2 25 2   102.10   -22 LegendNANA
02:00 -18.4 -20.6 83 0.2 4 5   102.08   -22 LegendNANA
03:00 -17.5 -19.8 82 0.2 5 7   102.06   -23 LegendNANA
04:00 -17.0 -19.3 83 0.0 6 4   102.04   -20 LegendNANA
05:00 -17.9 -20.2 82 0.5 25 9   102.03   -24 LegendNANA
06:00 -17.4 -19.9 81 0.2 23 14   101.99   -26 LegendNANA
07:00 -17.4 -20.0 80 0.0 23 17   101.95   -26 LegendNANA
08:00 -16.7 -19.6 78 0.0 22 7   101.95   -22 LegendNANA
09:00 -15.8 -19.1 76 0.9 22 3   101.93   -18 LegendNANA
10:00 -15.5 -18.8 76 0.3 24 13   101.89   -23 LegendNANA
11:00 -14.1 -18.6 69 0.0 28 6   101.89   -18 LegendNANA
12:00 -13.8 -18.3 69 0.0 35 8   101.87   -19 LegendNANA
13:00 -14.3 -18.6 70 0.0 31 12   101.89   -21 LegendNANA
14:00 -14.9 -18.7 73 0.0 34 19   101.89   -24 LegendNANA
15:00 -15.2 -18.7 75 0.0 31 9   101.90   -21 LegendNANA
16:00 -15.5 -18.5 78 0.0 31 19   101.90   -25 LegendNANA
17:00 -15.4 -18.2 80 0.0 31 25   101.91   -26 LegendNANA
18:00 -15.9 -18.4 81 0.0 31 24   101.95   -26 LegendNANA
19:00 -16.7 -19.1 82 0.0 32 25   101.93   -27 LegendNANA
20:00 -16.9 -19.4 81 0.0 31 22   101.97   -27 LegendNANA
21:00 -17.2 -19.8 80 0.0 29 14   101.98   -25 LegendNANA
22:00 -17.2 -20.0 79 0.0 27 11   101.99   -24 LegendNANA
23:00 -17.8 -20.3 81 0.0 27 17   102.03   -27 LegendNANA

Notes on Data Quality.

Legend

  • E = Estimated
  • M = Missing
  • NA = Not Available*
  • [empty] = Indicates an unobserved value
Date modified: